WetterOnline ( https://www.wetteronline.de )

Wetter aktuell Chemnitz

Aktuelles Wetter: Chemnitz (420m)

6-stündlich | Neueste Meldungen
Ortszeit Temperatur Wetter
Mi, 17.07. 20:00 21.0° C leicht bewölkt
Mi, 17.07. 14:00 23.1° C leicht bewölkt
Mi, 17.07. 8:00 18.2° C bedeckt
Mi, 17.07. 2:00 14.9° C wolkenlos
Di, 16.07. 20:00 23.4° C leicht bewölkt
Di, 16.07. 14:00 22.7° C bedeckt
Di, 16.07. 8:00 17.8° C Regen
Di, 16.07. 2:00 21.9° C leicht bewölkt
Ortszeit Temperatur Wetter
Do, 18.07. 0:00 18.5° C bewölkt
Mi, 17.07. 23:50 18.5° C bewölkt
Mi, 17.07. 23:40 18.6° C bedeckt
Mi, 17.07. 23:30 18.4° C bedeckt
Mi, 17.07. 23:20 18.4° C bedeckt
Mi, 17.07. 23:10 18.4° C bedeckt
Mi, 17.07. 23:00 18.4° C bedeckt
Mi, 17.07. 22:30 19.6° C bewölkt
Mi, 17.07. 22:00 19.9° C bedeckt
Mi, 17.07. 21:30 20.2° C bedeckt
Mi, 17.07. 21:00 20.5° C bedeckt
Ortszeit Relative Feuchte Sichtweite
Mi, 17.07. 20:00 55% >70 km
Mi, 17.07. 14:00 49% 55 km
Mi, 17.07. 8:00 68% 50 km
Mi, 17.07. 2:00 81% 65 km
Di, 16.07. 20:00 47% 65 km
Di, 16.07. 14:00 60% 65 km
Di, 16.07. 8:00 93% 30 km
Di, 16.07. 2:00 59% 65 km
Ortszeit Relative Feuchte Sichtweite
Do, 18.07. 0:00 69% 50 km
Mi, 17.07. 23:50 69% -
Mi, 17.07. 23:40 68% -
Mi, 17.07. 23:30 71% 55 km
Mi, 17.07. 23:20 71% -
Mi, 17.07. 23:10 71% -
Mi, 17.07. 23:00 71% 55 km
Mi, 17.07. 22:30 62% 35 km
Mi, 17.07. 22:00 62% 55 km
Mi, 17.07. 21:30 60% >70 km
Mi, 17.07. 21:00 60% 65 km
Ortszeit Niederschlagsmenge Niederschlagsart
Mi, 17.07. 20:00 0.0 l/m2 in 12 Std. -
Mi, 17.07. 14:00 0.1 l/m2 in 6 Std. Niederschlag
Mi, 17.07. 8:00 0.0 l/m2 in 12 Std. -
Mi, 17.07. 2:00 0.0 l/m2 in 6 Std. -
Di, 16.07. 20:00 0.0 l/m2 in 12 Std. -
Di, 16.07. 14:00 0.0 l/m2 in 6 Std. -
Di, 16.07. 8:00 2 l/m2 in 12 Std. Regen
Di, 16.07. 2:00 0.0 l/m2 in 6 Std. -
Ortszeit Niederschlagsmenge Niederschlagsart
Do, 18.07. 0:00 0.0 l/m2 in 1 Std. -
Mi, 17.07. 23:50 keine Meldung -
Mi, 17.07. 23:40 keine Meldung -
Mi, 17.07. 23:30 0.0 l/m2 in 30 Min -
Mi, 17.07. 23:20 keine Meldung -
Mi, 17.07. 23:10 keine Meldung -
Mi, 17.07. 23:00 0.0 l/m2 in 1 Std. -
Mi, 17.07. 22:30 0.0 l/m2 in 30 Min -
Mi, 17.07. 22:00 0.0 l/m2 in 1 Std. -
Mi, 17.07. 21:30 0.0 l/m2 in 30 Min -
Mi, 17.07. 21:00 0.0 l/m2 in 1 Std. -
Ortszeit Stärke Spitze Richtung
km/h Bft. km/h Grad Sektor
Mi, 17.07. 20:00 13 3 33 330° NW
Mi, 17.07. 14:00 18 3 40 280° W
Mi, 17.07. 8:00 15 3 22 220° SW
Mi, 17.07. 2:00 14 3 40 220° SW
Di, 16.07. 20:00 25 4 43 240° SW
Di, 16.07. 14:00 22 4 43 240° SW
Di, 16.07. 8:00 15 3 50 210° SW
Di, 16.07. 2:00 7 2 11 170° S
Ortszeit Stärke Spitze Richtung
km/h Bft. km/h Grad Sektor
Do, 18.07. 0:00 2 1 9 350° N
Mi, 17.07. 23:50 2 1 - 350° N
Mi, 17.07. 23:40 4 1 - 20° N
Mi, 17.07. 23:30 6 1 9 30° NO
Mi, 17.07. 23:20 6 1 - 30° NO
Mi, 17.07. 23:10 6 1 - 30° NO
Mi, 17.07. 23:00 7 2 13 20° N
Mi, 17.07. 22:30 6 1 13 280° W
Mi, 17.07. 22:00 4 1 7 270° W
Mi, 17.07. 21:30 4 1 7 280° W
Mi, 17.07. 21:00 4 1 14 300° NW
Ortszeit Untergrenze Bedeckung Gattung
total tief tief mittel hoch
Mi, 17.07. 20:00 1800 m 3/8 3/8 - - -
Mi, 17.07. 14:00 1500 m 4/8 4/8 - - -
Mi, 17.07. 8:00 5700 m 8/8 8/8 - - -
Mi, 17.07. 2:00 - 0/8 0/8 - - -
Di, 16.07. 20:00 1500 m 2/8 1/8 - - -
Di, 16.07. 14:00 3000 m 8/8 8/8 - - -
Di, 16.07. 8:00 2700 m 8/8 7/8 - - -
Di, 16.07. 2:00 5100 m 4/8 4/8 - - -
Ortszeit Bedeckungsgrad in Achtel und Wolkenuntergrenze
Do, 18.07. 0:00 7(2700m)
Mi, 17.07. 23:50 7(2700m)
Mi, 17.07. 23:40 8
Mi, 17.07. 23:30 3(2100m) 8(2700m)
Mi, 17.07. 23:20 3(2100m) 8(2700m)
Mi, 17.07. 23:10 8
Mi, 17.07. 23:00 1(1500m) 7(1800m) 8(2700m)
Mi, 17.07. 22:30 4(1500m) 6(1800m) 7(2700m)
Mi, 17.07. 22:00 7(1800m) 7(2100m) 8(2700m)
Mi, 17.07. 21:30 7(1800m) 8(2100m) 8(2700m)
Mi, 17.07. 21:00 6(1800m) 7(2100m) 8(2700m)
Ortszeit Luftdruck NN (hPa) Tendenz (hPa in 3 Std.)
Mi, 17.07. 20:00 1020 + 0,6
Mi, 17.07. 14:00 1019 + 0,7
Mi, 17.07. 8:00 1019 + 0,9
Mi, 17.07. 2:00 1018 + 1,1
Di, 16.07. 20:00 1013 + 0,7
Di, 16.07. 14:00 1013 + 0,9
Di, 16.07. 8:00 1011 0,0
Di, 16.07. 2:00 1009 - 1,0
Ortszeit Luftdruck NN (hPa) Tendenz (hPa in 3 Std.)
Do, 18.07. 0:00 1023 + 1,4
Mi, 17.07. 23:50 1023 keine Meldung
Mi, 17.07. 23:40 1023 keine Meldung
Mi, 17.07. 23:30 1023 + 1,5
Mi, 17.07. 23:20 1023 keine Meldung
Mi, 17.07. 23:10 1023 keine Meldung
Mi, 17.07. 23:00 1023 + 1,8
Mi, 17.07. 22:30 1022 + 1,8
Mi, 17.07. 22:00 1022 + 1,4
Mi, 17.07. 21:30 1022 + 1,2
Mi, 17.07. 21:00 1021 + 1,0
Ortszeit Schneehöhe (cm)
Mi, 17.07. 20:00 0
Mi, 17.07. 14:00 0
Mi, 17.07. 8:00 0
Mi, 17.07. 2:00 0
Di, 16.07. 20:00 0
Di, 16.07. 14:00 0
Di, 16.07. 8:00 0
Di, 16.07. 2:00 0
Ortszeit Schneehöhe (cm)
Do, 18.07. 0:00 0
Mi, 17.07. 23:50 0
Mi, 17.07. 23:40 -
Mi, 17.07. 23:30 0
Mi, 17.07. 23:20 0
Mi, 17.07. 23:10 -
Mi, 17.07. 23:00 0
Mi, 17.07. 22:30 0
Mi, 17.07. 22:00 0
Mi, 17.07. 21:30 0
Mi, 17.07. 21:00 0
Link zu dieser Seite / Seite empfehlen

Das Wetter in ...